EW9092 Weather Reports


Display with metric or nautical units.
time (UTC)temp
F
wind
direction
speed
MPH
gust
MPH
rain 1hr
in
rain 24hr
in
rain mn
in
humidity
%
barometer
mb
20260906081746 82 175 2.0 4.0 0.00 0.00 0.00 47 1013.7
20260906081244 82 138 2.0 5.0 0.00 0.00 0.00 47 1013.7
20260906081005 82 148 3.0 7.0 0.00 0.00 0.00 47 1013.8
20260906080245 82 141 3.0 7.0 0.00 0.00 0.00 47 1013.8
20260906080006 82 112 3.0 6.0 0.00 0.00 0.00 47 1013.8
20260906075243 82 128 2.0 6.0 0.00 0.00 0.00 48 1013.9
20260906075002 82 138 2.0 4.0 0.00 0.00 0.00 47 1014.0
20260906074244 82 143 1.0 3.0 0.00 0.00 0.00 48 1014.1
20260906074233 82 153 1.0 4.0 0.00 0.00 0.00 47 1014.1
20260906073244 82 146 2.0 4.0 0.00 0.00 0.00 47 1014.0
20260906072744 82 139 2.0 5.0 0.00 0.00 0.00 47 1014.0
20260906072735 82 141 1.0 5.0 0.00 0.00 0.00 47 1014.0
20260906071740 82 133 0.0 3.0 0.00 0.00 0.00 47 1014.1
20260906071233 82 134 0.0 2.0 0.00 0.00 0.00 47 1014.1
20260906070733 82 115 0.0 2.0 0.00 0.00 0.00 47 1014.1
20260906070230 82 123 0.0 2.0 0.00 0.00 0.00 47 1014.1
20260906065728 82 136 0.0 2.0 0.00 0.00 0.00 47 1014.2
20260906065226 82 104 0.0 2.0 0.00 0.00 0.00 47 1014.1
20260906064727 82 138 0.0 1.0 0.00 0.00 0.00 47 1014.1
20260906064443 82 146 0.0 2.0 0.00 0.00 0.00 47 1014.1
20260906063724 82 146 0.0 2.0 0.00 0.00 0.00 47 1014.0
20260906063224 82 58 0.0 0.0 0.00 0.00 0.00 47 1014.1
20260906062721 82 58 0.0 0.0 0.00 0.00 0.00 47 1014.2
20260906062221 82 58 0.0 0.0 0.00 0.00 0.00 47 1014.1
20260906061719 82 58 0.0 0.0 0.00 0.00 0.00 48 1014.2
20260906061218 83 58 0.0 0.0 0.00 0.00 0.00 47 1014.1
20260906060714 83 58 0.0 0.0 0.00 0.00 0.00 47 1014.1
20260906060214 82 58 0.0 0.0 0.00 0.00 0.00 47 1014.2
20260906055709 82 58 0.0 0.0 0.00 0.00 0.00 48 1014.2
20260906055211 82 58 0.0 0.0 0.00 0.00 0.00 47 1014.2
20260906054927 83 58 0.0 0.0 0.00 0.00 0.00 46 1014.1
20260906054155 83 58 0.0 0.0 0.00 0.00 0.00 46 1014.1
20260906054128 83 58 0.0 0.0 0.00 0.00 0.00 45 1014.2
20260906053144 83 58 0.0 0.0 0.00 0.00 0.00 45 1014.2
20260906052643 84 58 0.0 0.0 0.00 0.00 0.00 45 1014.1
20260906052140 84 58 0.0 0.0 0.00 0.00 0.00 45 1014.1
20260906051637 84 58 0.0 0.0 0.00 0.00 0.00 44 1014.1
20260906051137 84 58 0.0 0.0 0.00 0.00 0.00 44 1014.2
20260906050640 84 58 0.0 0.0 0.00 0.00 0.00 43 1014.2
20260906050406 85 58 0.0 0.0 0.00 0.00 0.00 43 1014.2
20260906050127 85 58 0.0 0.0 0.00 0.00 0.00 43 1014.2
20260906045359 85 11 0.0 3.0 0.00 0.00 0.00 42 1014.2
20260906044637 85 11 0.0 3.0 0.00 0.00 0.00 42 1014.2
20260906044134 86 17 0.0 0.0 0.00 0.00 0.00 41 1014.2
20260906043635 86 17 0.0 3.0 0.00 0.00 0.00 41 1014.2
20260906043402 87 17 0.0 3.0 0.00 0.00 0.00 40 1014.2
20260906042634 87 293 0.0 1.0 0.00 0.00 0.00 40 1014.1
20260906042135 87 248 0.0 1.0 0.00 0.00 0.00 39 1014.1
20260906041634 87 248 0.0 1.0 0.00 0.00 0.00 39 1014.2
20260906041134 88 248 0.0 2.0 0.00 0.00 0.00 38 1014.1
20260906040633 88 248 1.0 3.0 0.00 0.00 0.00 38 1014.1
20260906040135 88 253 1.0 3.0 0.00 0.00 0.00 38 1014.2
20260906035635 88 246 1.0 5.0 0.00 0.00 0.00 38 1014.2
20260906035135 88 263 1.0 5.0 0.00 0.00 0.00 37 1014.1
20260906034634 89 274 1.0 3.0 0.00 0.00 0.00 37 1014.1
20260906034133 89 260 1.0 4.0 0.00 0.00 0.00 37 1014.0
20260906033635 89 269 2.0 6.0 0.00 0.00 0.00 37 1014.0
20260906033133 89 248 2.0 6.0 0.00 0.00 0.00 37 1013.9
20260906032633 89 274 2.0 6.0 0.00 0.00 0.00 36 1013.8
20260906032135 89 251 2.0 6.0 0.00 0.00 0.00 36 1013.8
20260906031635 89 267 2.0 6.0 0.00 0.00 0.00 36 1013.8
20260906031134 89 259 1.0 5.0 0.00 0.00 0.00 36 1013.7
20260906030852 90 269 1.0 4.0 0.00 0.00 0.00 36 1013.6
20260906030134 90 243 2.0 5.0 0.00 0.00 0.00 36 1013.6
20260906025634 90 268 1.0 5.0 0.00 0.00 0.00 36 1013.5
20260906025134 90 308 1.0 4.0 0.00 0.00 0.00 36 1013.4
20260906024633 90 269 1.0 4.0 0.00 0.00 0.00 35 1013.4
20260906024407 90 262 2.0 6.0 0.00 0.00 0.00 35 1013.4
20260906023633 90 259 2.0 6.0 0.00 0.00 0.00 35 1013.4
20260906023358 90 273 3.0 6.0 0.00 0.00 0.00 35 1013.4
20260906022635 91 250 3.0 8.0 0.00 0.00 0.00 35 1013.2
20260906022134 91 288 3.0 8.0 0.00 0.00 0.00 35 1013.2
20260906021633 91 276 3.0 8.0 0.00 0.00 0.00 35 1013.2
20260906021132 91 278 3.0 8.0 0.00 0.00 0.00 35 1013.2
20260906020632 91 269 4.0 9.0 0.00 0.00 0.00 35 1013.2
20260906020129 91 269 5.0 10.0 0.00 0.00 0.00 34 1013.2
20260906015631 91 290 5.0 10.0 0.00 0.00 0.00 34 1013.2
20260906015127 91 236 5.0 10.0 0.00 0.00 0.00 34 1013.1
20260906014628 92 224 5.0 13.0 0.00 0.00 0.00 34 1013.1
20260906014348 92 240 4.0 13.0 0.00 0.00 0.00 34 1013.1
20260906013622 92 281 3.0 10.0 0.00 0.00 0.00 33 1013.1
20260906013121 92 283 4.0 10.0 0.00 0.00 0.00 33 1012.9
20260906012625 92 281 5.0 10.0 0.00 0.00 0.00 33 1012.9
20260906012223 92 275 5.0 10.0 0.00 0.00 0.00 33 1013.1
20260906011121 93 293 6.0 12.0 0.00 0.00 0.00 33 1013.1
20260906010621 93 276 6.0 12.0 0.00 0.00 0.00 33 1013.1
20260906010346 93 255 6.0 11.0 0.00 0.00 0.00 33 1013.1
20260906005623 94 248 6.0 14.0 0.00 0.00 0.00 32 1013.1
20260906005615 94 291 5.0 14.0 0.00 0.00 0.00 32 1012.9
20260906004620 94 263 5.0 10.0 0.00 0.00 0.00 32 1012.9
20260906004122 95 311 6.0 12.0 0.00 0.00 0.00 32 1013.1
20260906003847 95 292 7.0 13.0 0.00 0.00 0.00 31 1013.1
20260906003117 95 269 6.0 13.0 0.00 0.00 0.00 31 1013.1
20260906002837 95 252 5.0 13.0 0.00 0.00 0.00 31 1013.2
20260906002113 95 297 5.0 12.0 0.00 0.00 0.00 31 1013.1
20260906001615 95 235 5.0 11.0 0.00 0.00 0.00 31 1012.9
20260906001332 96 273 6.0 11.0 0.00 0.00 0.00 31 1013.1
20260906000614 95 273 7.0 13.0 0.00 0.00 0.00 31 1012.9
20260906000341 95 301 6.0 13.0 0.00 0.00 0.00 31 1012.9
20260905235615 96 259 5.0 12.0 0.00 0.00 0.00 30 1012.9
20260905235113 96 265 5.0 12.0 0.00 0.00 0.00 30 1012.9
20260905234838 96 280 5.0 11.0 0.00 0.00 0.00 30 1012.9
20260905234333 96 250 5.0 11.0 0.00 0.00 0.00 30 1012.9
20260905233610 96 308 5.0 12.0 0.00 0.00 0.00 30 1012.8
20260905233344 96 271 7.0 13.0 0.00 0.00 0.00 30 1012.9
20260905233054 96 271 6.0 13.0 0.00 0.00 0.00 30 1012.9
20260905232109 96 243 5.0 9.0 0.00 0.00 0.00 29 1013.1
20260905231612 96 280 5.0 9.0 0.00 0.00 0.00 30 1012.9
20260905231336 96 262 6.0 13.0 0.00 0.00 0.00 29 1012.9
20260905230557 96 260 5.0 13.0 0.00 0.00 0.00 29 1013.1
20260905230050 96 275 5.0 11.0 0.00 0.00 0.00 29 1013.1
20260905225543 96 237 4.0 11.0 0.00 0.00 0.00 29 1013.2
20260905225033 96 274 5.0 11.0 0.00 0.00 0.00 29 1013.2
20260905224525 96 266 6.0 11.0 0.00 0.00 0.00 29 1013.2
20260905224021 97 276 5.0 10.0 0.00 0.00 0.00 29 1013.2
20260905223510 96 225 5.0 12.0 0.00 0.00 0.00 29 1013.2
20260905223006 96 259 5.0 12.0 0.00 0.00 0.00 29 1013.3
20260905222459 96 290 6.0 14.0 0.00 0.00 0.00 29 1013.3
20260905221949 96 278 5.0 14.0 0.00 0.00 0.00 30 1013.3
20260905221442 97 274 4.0 13.0 0.00 0.00 0.00 29 1013.4
20260905220938 97 236 6.0 13.0 0.00 0.00 0.00 29 1013.5
20260905220427 96 295 6.0 13.0 0.00 0.00 0.00 30 1013.5
20260905220141 96 280 5.0 10.0 0.00 0.00 0.00 30 1013.5
20260905215415 97 271 5.0 15.0 0.00 0.00 0.00 30 1013.6
20260905215124 98 207 4.0 15.0 0.00 0.00 0.00 29 1013.7
20260905214359 98 300 4.0 8.0 0.00 0.00 0.00 29 1013.7
20260905213853 98 242 3.0 8.0 0.00 0.00 0.00 29 1013.8
20260905213343 97 259 4.0 8.0 0.00 0.00 0.00 29 1013.8
20260905212841 97 188 4.0 8.0 0.00 0.00 0.00 29 1013.9
20260905212338 97 208 3.0 8.0 0.00 0.00 0.00 28 1014.0
20260905211839 98 260 3.0 8.0 0.00 0.00 0.00 28 1014.0
20260905211410 97 263 2.0 8.0 0.00 0.00 0.00 29 1014.1
20260905210837 97 276 2.0 8.0 0.00 0.00 0.00 29 1014.2
20260905210335 96 274 3.0 10.0 0.00 0.00 0.00 30 1014.4
20260905205833 96 311 3.0 10.0 0.00 0.00 0.00 30 1014.4
20260905205601 96 312 3.0 7.0 0.00 0.00 0.00 29 1014.5
20260905204834 97 254 4.0 7.0 0.00 0.00 0.00 30 1014.5
20260905204555 97 308 4.0 9.0 0.00 0.00 0.00 30 1014.6
20260905203831 96 313 4.0 9.0 0.00 0.00 0.00 30 1014.7
20260905203331 95 269 3.0 8.0 0.00 0.00 0.00 30 1014.7
20260905202831 96 304 3.0 9.0 0.00 0.00 0.00 30 1014.7
20260905202329 96 287 3.0 9.0 0.00 0.00 0.00 30 1014.9
20260905201827 96 333 3.0 9.0 0.00 0.00 0.00 31 1014.9
20260905201552 96 232 5.0 9.0 0.00 0.00 0.00 31 1015.0
20260905200826 96 281 5.0 8.0 0.00 0.00 0.00 31 1015.1
20260905200331 96 244 3.0 9.0 0.00 0.00 0.00 32 1015.1
20260905195838 96 290 3.0 9.0 0.00 0.00 0.00 31 1015.2
20260905195323 96 281 4.0 8.0 0.00 0.00 0.00 32 1015.3
20260905194823 95 235 4.0 8.0 0.00 0.00 0.00 32 1015.4
20260905194322 96 256 3.0 7.0 0.00 0.00 0.00 32 1015.4
20260905193823 96 283 3.0 7.0 0.00 0.00 0.00 32 1015.4
20260905193321 96 266 3.0 9.0 0.00 0.00 0.00 32 1015.5
20260905192820 95 231 4.0 10.0 0.00 0.00 0.00 33 1015.7
20260905192318 95 256 4.0 10.0 0.00 0.00 0.00 33 1015.8
20260905191824 95 278 3.0 9.0 0.00 0.00 0.00 33 1015.8
20260905191321 96 217 3.0 7.0 0.00 0.00 0.00 33 1015.9
20260905190820 96 266 3.0 7.0 0.00 0.00 0.00 32 1016.0
20260905190319 95 215 3.0 7.0 0.00 0.00 0.00 34 1016.0
20260905190047 94 252 4.0 7.0 0.00 0.00 0.00 35 1016.1
20260905185317 95 263 3.0 7.0 0.00 0.00 0.00 34 1016.2
20260905184815 95 267 1.0 5.0 0.00 0.00 0.00 34 1016.2
20260905184315 94 184 2.0 6.0 0.00 0.00 0.00 34 1016.3
20260905184136 94 276 2.0 6.0 0.00 0.00 0.00 35 1016.5
20260905182815 93 219 3.0 9.0 0.00 0.00 0.00 35 1016.5
20260905182543 93 217 3.0 9.0 0.00 0.00 0.00 35 1016.6
20260905181816 94 244 2.0 6.0 0.00 0.00 0.00 35 1016.6
20260905181315 93 101 3.0 7.0 0.00 0.00 0.00 35 1016.6
20260905180815 93 238 3.0 7.0 0.00 0.00 0.00 35 1016.7
20260905180535 93 193 3.0 6.0 0.00 0.00 0.00 35 1016.7
20260905175817 93 264 2.0 6.0 0.00 0.00 0.00 36 1016.7
20260905175314 93 266 2.0 5.0 0.00 0.00 0.00 36 1016.7
20260905174817 92 304 2.0 5.0 0.00 0.00 0.00 36 1016.7
20260905174307 92 300 2.0 6.0 0.00 0.00 0.00 35 1016.7
20260905173801 92 274 2.0 6.0 0.00 0.00 0.00 35 1016.8
20260905173255 91 276 2.0 6.0 0.00 0.00 0.00 37 1016.8
20260905172743 92 259 2.0 6.0 0.00 0.00 0.00 38 1016.8
20260905172237 91 217 1.0 6.0 0.00 0.00 0.00 38 1016.8
20260905171730 92 338 1.0 3.0 0.00 0.00 0.00 38 1016.8
20260905171438 91 129 2.0 7.0 0.00 0.00 0.00 40 1016.8
20260905170714 91 272 1.0 7.0 0.00 0.00 0.00 38 1017.0
20260905170213 91 276 1.0 5.0 0.00 0.00 0.00 40 1017.0
20260905165932 90 266 1.0 5.0 0.00 0.00 0.00 40 1017.0
20260905165210 91 251 1.0 5.0 0.00 0.00 0.00 40 1017.0
20260905164711 91 229 1.0 4.0 0.00 0.00 0.00 40 1017.1
20260905164212 90 264 1.0 4.0 0.00 0.00 0.00 40 1017.1
20260905163709 91 232 0.0 3.0 0.00 0.00 0.00 39 1017.1
20260905163652 91 127 0.0 3.0 0.00 0.00 0.00 41 1017.2
20260905162709 90 214 1.0 3.0 0.00 0.00 0.00 42 1017.2
20260905162206 89 231 1.0 3.0 0.00 0.00 0.00 42 1017.2
20260905161708 88 248 1.0 3.0 0.00 0.00 0.00 44 1017.2
20260905161203 88 231 0.0 3.0 0.00 0.00 0.00 45 1017.2
20260905160927 88 291 0.0 0.0 0.00 0.00 0.00 45 1017.2
20260905160203 89 225 0.0 0.0 0.00 0.00 0.00 44 1017.2
20260905155702 89 117 0.0 2.0 0.00 0.00 0.00 45 1017.1
20260905155429 89 236 0.0 2.0 0.00 0.00 0.00 43 1017.1
20260905154705 89 210 0.0 1.0 0.00 0.00 0.00 45 1017.1
20260905154202 87 226 0.0 0.0 0.00 0.00 0.00 47 1017.1
20260905153703 87 226 0.0 0.0 0.00 0.00 0.00 47 1017.1
20260905153158 87 226 0.0 0.0 0.00 0.00 0.00 47 1017.1
20260905152658 88 155 0.0 0.0 0.00 0.00 0.00 46 1017.1
20260905152159 88 168 0.0 0.0 0.00 0.00 0.00 46 1017.1
20260905151922 87 168 0.0 0.0 0.00 0.00 0.00 47 1017.1
20260905151200 86 168 0.0 0.0 0.00 0.00 0.00 49 1017.2
20260905150659 86 168 0.0 0.0 0.00 0.00 0.00 49 1017.1
20260905150159 85 168 0.0 0.0 0.00 0.00 0.00 51 1017.1
20260905145700 83 137 0.0 0.0 0.00 0.00 0.00 53 1017.2
20260905145154 82 137 0.0 0.0 0.00 0.00 0.00 55 1017.2
20260905144656 83 137 0.0 0.0 0.00 0.00 0.00 54 1017.2
20260905144155 83 137 0.0 0.0 0.00 0.00 0.00 54 1017.2
20260905143654 82 137 0.0 0.0 0.00 0.00 0.00 57 1017.1
20260905143154 81 137 0.0 0.0 0.00 0.00 0.00 59 1017.1
20260905142912 80 137 0.0 0.0 0.00 0.00 0.00 62 1017.0
20260905142413 78 155 0.0 0.0 0.00 0.00 0.00 64 1017.0
20260905141652 78 131 0.0 0.0 0.00 0.00 0.00 65 1016.8
20260905141156 77 131 0.0 2.0 0.00 0.00 0.00 65 1016.8
20260905140646 77 147 1.0 3.0 0.00 0.00 0.00 65 1016.7
20260905140139 77 165 1.0 3.0 0.00 0.00 0.00 65 1016.7
20260905135634 78 140 1.0 3.0 0.00 0.00 0.00 65 1016.6
20260905135342 77 156 0.0 3.0 0.00 0.00 0.00 65 1016.6
20260905134618 77 205 0.0 3.0 0.00 0.00 0.00 67 1016.6
20260905134112 76 146 1.0 3.0 0.00 0.00 0.00 68 1016.5
20260905133832 75 149 1.0 3.0 0.00 0.00 0.00 69 1016.4
20260905133056 74 127 1.0 2.0 0.00 0.00 0.00 71 1016.3
20260905132551 74 167 0.0 2.0 0.00 0.00 0.00 72 1016.3
20260905132039 74 147 0.0 0.0 0.00 0.00 0.00 72 1016.2
20260905131534 74 147 0.0 0.0 0.00 0.00 0.00 72 1016.1
20260905131028 74 147 0.0 0.0 0.00 0.00 0.00 72 1016.0
20260905130518 74 147 0.0 0.0 0.00 0.00 0.00 72 1016.0
20260905130012 74 147 0.0 0.0 0.00 0.00 0.00 73 1015.9
20260905125505 74 147 0.0 0.0 0.00 0.00 0.00 73 1016.0
20260905125220 74 147 0.0 0.0 0.00 0.00 0.00 72 1015.9
20260905124448 74 145 0.0 0.0 0.00 0.00 0.00 73 1015.9
20260905123944 73 146 0.0 0.0 0.00 0.00 0.00 73 1015.8
20260905123433 73 146 0.0 0.0 0.00 0.00 0.00 73 1015.7
20260905122928 74 146 0.0 0.0 0.00 0.00 0.00 71 1015.7
20260905122421 74 146 0.0 0.0 0.00 0.00 0.00 71 1015.8
20260905121912 74 146 0.0 0.0 0.00 0.00 0.00 70 1015.7
20260905121405 74 146 0.0 0.0 0.00 0.00 0.00 70 1015.7
20260905121120 74 145 0.0 0.0 0.00 0.00 0.00 71 1015.7
20260905120349 73 146 0.0 0.0 0.00 0.00 0.00 72 1015.7
20260905115844 73 146 0.0 0.0 0.00 0.00 0.00 72 1015.7
20260905115338 74 145 0.0 0.0 0.00 0.00 0.00 70 1015.7
20260905114828 74 146 0.0 0.0 0.00 0.00 0.00 70 1015.5
20260905114322 75 145 0.0 0.0 0.00 0.00 0.00 69 1015.5
20260905113816 75 146 0.0 0.0 0.00 0.00 0.00 69 1015.5
20260905113305 75 145 0.0 0.0 0.00 0.00 0.00 70 1015.5
20260905112800 75 145 0.0 0.0 0.00 0.00 0.00 70 1015.5
20260905112253 74 146 0.0 0.0 0.00 0.00 0.00 71 1015.7
20260905111744 74 146 0.0 0.0 0.00 0.00 0.00 71 1015.7
20260905111236 74 146 0.0 0.0 0.00 0.00 0.00 71 1015.7
20260905110955 74 146 0.0 0.0 0.00 0.00 0.00 70 1015.7
20260905110222 75 146 0.0 0.0 0.00 0.00 0.00 70 1015.7
20260905105716 75 145 0.0 0.0 0.00 0.00 0.00 70 1015.5
20260905105210 75 145 0.0 0.0 0.00 0.00 0.00 70 1015.5
20260905104700 75 145 0.0 0.0 0.00 0.00 0.00 68 1015.5
20260905104154 75 146 0.0 0.0 0.00 0.00 0.00 69 1015.5
20260905103648 75 146 0.0 0.0 0.00 0.00 0.00 68 1015.5
20260905103138 76 146 0.0 0.0 0.00 0.00 0.00 67 1015.5
20260905102632 76 145 0.0 0.0 0.00 0.00 0.00 67 1015.7
20260905102130 76 145 0.0 0.0 0.00 0.00 0.00 66 1015.5
20260905101614 76 146 0.0 0.0 0.00 0.00 0.00 66 1015.5
20260905101110 77 145 0.0 0.0 0.00 0.00 0.00 65 1015.7
20260905100604 77 145 0.0 0.0 0.00 0.00 0.00 65 1015.5
20260905100052 77 146 0.0 0.0 0.00 0.00 0.00 65 1015.7
20260905095546 77 146 0.0 0.0 0.00 0.00 0.00 64 1015.7
20260905095039 77 146 0.0 0.0 0.00 0.00 0.00 64 1015.7
20260905094530 77 146 0.0 0.0 0.00 0.00 0.00 64 1015.7
20260905094024 77 145 0.0 0.0 0.00 0.00 0.00 64 1015.7
20260905093518 77 152 0.0 0.0 0.00 0.00 0.00 64 1015.8
20260905093231 77 152 0.0 0.0 0.00 0.00 0.00 63 1015.5
20260905092501 77 152 0.0 0.0 0.00 0.00 0.00 63 1015.7
20260905092213 77 157 0.0 0.0 0.00 0.00 0.00 63 1015.5
20260905091446 78 146 0.0 0.0 0.00 0.00 0.00 63 1015.7
20260905090940 78 146 0.0 0.0 0.00 0.00 0.00 63 1015.7
20260905090434 78 146 0.0 0.0 0.00 0.00 0.00 63 1015.7
20260905085924 78 146 0.0 0.0 0.00 0.00 0.00 63 1015.7
20260905085417 78 146 0.0 0.0 0.00 0.00 0.00 62 1015.7
20260905084912 78 146 0.0 0.0 0.00 0.00 0.00 62 1015.7
20260905084402 78 146 0.0 0.0 0.00 0.00 0.00 61 1015.8
20260905083856 78 146 0.0 0.0 0.00 0.00 0.00 61 1015.8
20260905083350 78 138 0.0 0.0 0.00 0.00 0.00 61 1015.8
20260905082844 78 140 0.0 0.0 0.00 0.00 0.00 61 1015.8
20260905082342 78 147 0.0 0.0 0.00 0.00 0.00 61 1015.8
20260905082055 78 147 0.0 2.0 0.00 0.00 0.00 61 1015.8